Regional Weather Roundup
Issued by NWS Jackson, KY

Home | Current Version | Previous Version | Text Only | Print | Product List | Glossary Off
Versions: 1 2 3 4 5 6 7 8 9 10 11 12 13 14 15 16 17 18 19 20 21 22 23 24 25 26 27 28

038
ASUS43 KJKL 211610
RWRJKL

EAST KENTUCKY HOURLY WEATHER ROUNDUP
NATIONAL WEATHER SERVICE JACKSON KY
1200 PM EDT THU MAY 21 2015

NOTE: "FAIR" INDICATES FEW OR NO CLOUDS BELOW 12,000 FEET WITH
NO SIGNIFICANT WEATHER AND/OR OBSTRUCTIONS TO VISIBILITY.

* THESE REPORTS ARE NOT UNDER NWS QUALITY CONTROL AND MAY NOT
  REPORT WEATHER SUCH AS PRECIPITATION AND FOG.

KYZ079-080-083-085-087-088-110-112-115-119-120-211700
...EASTERN KENTUCKY...

CITY           SKY/WX    TMP DP  RH WIND       PRES   REMARKS
JACKSON        CLOUDY    53  50  89 VRB5      30.02S FOG
LONDON         CLOUDY    55  47  74 NW7       30.04F
SOMERSET*      CLOUDY    54  46  76 NW7       30.07S
MONTICELLO*    PTSUNNY   56  52  86 NW3       30.09S
MIDDLESBORO*   CLOUDY    59  53  80 NW9       30.04S
HARLAN APT*    CLOUDY    55  54  94 NW6       30.02F
HAZARD APT*    CLOUDY    54  54 100 W6        30.03R FOG
BLACK MTN*       N/A     48  48 100 S1          N/A
PIKEVILLE APT* FOG       52  52 100 SW3       30.01R VSB 1/2
BIG SANDY*     DRIZZLE   52  52  98 W6        30.02S
MOREHEAD APT*  PTSUNNY   52  48  87 N5        30.06S FOG
$$

KYZ035-036-041-042-044-050-067-078-099-211700
...CENTRAL KENTUCKY...

CITY           SKY/WX    TMP DP  RH WIND       PRES   REMARKS
MT STERLING*   CLOUDY    54  50  87 N5        30.05F
FLEMING/MASON* CLOUDY    54  48  82 N7        30.04F
DANVILLE*      CLOUDY    54  46  76 NW7       30.06S
RICHMOND*      CLOUDY    54  48  82 NW6       30.05R
LEXINGTON      CLOUDY    55  48  77 NW8       30.05S
FRANKFORT      CLOUDY    56  45  66 NW6       30.05S
$$

KYZ091>093-OHZ055-061-077-WVZ005-015-034-035-042-211700
...SOUTHERN OHIO/WEST VIRGINIA...

CITY           SKY/WX    TMP DP  RH WIND       PRES   REMARKS
COVINGTON      CLOUDY    53  44  71 NW9       30.05F
COLUMBUS       PTSUNNY   56  40  55 CALM      30.02S
DAYTON         CLOUDY    55  39  54 N9        30.07R
WILMINGTON     CLOUDY    53  42  66 N9        30.04R
HUNTINGTON     CLOUDY    52  50  93 CALM      30.00F
CHARLESTON     DRIZZLE   54  52  93 NW3       29.98S FOG
PINEVILLE*     CLOUDY    58  56  96 MISG      30.02R
BECKLEY        CLOUDY    56  53  90 NW5       29.96S
BLUEFIELD      LGT RAIN  57  53  86 W8        29.98R
$$

VAZ002-007-008-TNZ017-027-036-066-071-211700
...SOUTHWEST VIRGINIA/EAST TENNESSEE...

CITY           SKY/WX    TMP DP  RH WIND       PRES   REMARKS
WISE*          CLOUDY    55  55 100 W7        30.03R
JONESVILLE*    CLOUDY    57  55  94 W7        30.04S
ABINGDON*      CLOUDY    65  58  78 NW9G16    29.98S
BRISTOL        PTSUNNY   69  57  65 W14G20    29.98R
KNOXVILLE      PTSUNNY   67  55  65 W12       30.01R
OAK RIDGE      CLOUDY    65  54  67 VRB5      30.04R
CROSSVILLE     CLOUDY    54  50  86 NW9       30.08R
NASHVILLE      CLOUDY    55  49  80 NW9       30.13R
$$

...KEY TO REMARKS...
VSB - VISIBILITY IN MILES
WCI - WIND CHILL INDEX
HX  - HEAT INDEX

$$



USA.gov is the U.S. government's official web portal to all federal, state and local government web resources and services.